EW3205 Weather Reports


time (UTC)temp
F
wind
direction
speed
knots
gust
knots
rain 1hr
in
rain 24hr
in
rain mn
in
humidity
%
barometer
mb
20260502163046 62 238 4.3 14.8 0.00 0.00 0.00 59 1011.4
20260502161544 64 181 6.1 13.0 0.00 0.00 0.00 56 1011.1
20260502151538 65 170 5.2 12.2 0.00 0.00 0.00 57 1011.8
20260502123020 64 155 5.2 10.4 0.00 0.00 0.00 62 1013.8
20260502121534 65 182 6.1 12.2 0.00 0.00 0.00 61 1013.9
20260502114516 64 152 7.8 13.0 0.00 0.00 0.00 61 1014.2
20260502113014 63 167 7.8 13.9 0.00 0.00 0.00 62 1014.4
20260502111513 63 204 8.7 14.8 0.00 0.00 0.00 61 1014.4
20260502110011 64 159 5.2 12.2 0.00 0.00 0.00 62 1014.5
20260502104509 63 200 7.8 13.0 0.00 0.00 0.00 63 1014.6
20260502103006 63 198 7.8 13.9 0.00 0.00 0.00 62 1014.8
20260502101506 62 193 4.3 14.8 0.00 0.00 0.00 64 1014.9
20260502100104 61 190 9.6 15.6 0.00 0.00 0.00 63 1015.0
20260502071527 57 190 4.3 12.2 0.00 0.00 0.00 73 1015.7
20260502070023 56 157 6.1 10.4 0.00 0.00 0.00 74 1015.8
20260502064516 56 153 5.2 9.6 0.00 0.00 0.00 73 1015.9
20260502063019 55 199 6.1 13.9 0.00 0.00 0.00 75 1016.1
20260502061507 54 164 7.0 13.0 0.00 0.00 0.00 76 1016.3
20260502060004 54 199 7.0 14.8 0.00 0.00 0.00 77 1016.4
20260502054501 53 188 6.1 10.4 0.00 0.00 0.00 78 1016.4
20260502053059 52 173 2.6 12.2 0.00 0.00 0.00 79 1016.5
20260502051556 52 185 7.8 12.2 0.00 0.00 0.00 79 1016.7
20260502050054 52 185 5.2 9.6 0.00 0.00 0.00 79 1016.8
20260502044552 51 179 5.2 10.4 0.00 0.00 0.00 80 1017.0
20260502043051 50 171 3.5 12.2 0.00 0.00 0.00 82 1017.2
20260502041548 50 181 3.5 7.8 0.00 0.00 0.00 83 1017.1
20260502040045 49 186 2.6 7.0 0.00 0.00 0.00 84 1017.4
20260502034543 49 192 1.7 5.2 0.00 0.00 0.00 85 1017.5
20260502033046 48 229 0.0 4.3 0.00 0.00 0.00 86 1017.7
20260502031539 49 135 0.9 5.2 0.00 0.00 0.00 85 1018.1
20260502030037 49 185 2.6 7.8 0.00 0.00 0.00 86 1018.3
20260502024536 48 185 1.7 5.2 0.00 0.00 0.00 87 1018.5
20260502023035 48 189 1.7 5.2 0.00 0.00 0.00 86 1018.7
20260502021533 48 225 2.6 5.2 0.00 0.00 0.00 86 1018.8
20260502020033 48 217 0.9 2.6 0.00 0.00 0.00 86 1019.0
20260502014531 48 207 1.7 3.5 0.00 0.00 0.00 87 1019.3
20260502013029 48 200 0.9 4.3 0.00 0.00 0.00 86 1019.4
20260502011527 48 198 0.9 2.6 0.00 0.00 0.00 87 1019.7
20260502010025 48 196 0.9 3.5 0.00 0.00 0.00 88 1019.8
20260502004539 48 213 1.7 3.5 0.00 0.00 0.00 88 1020.1
20260502003023 48 236 1.7 4.3 0.00 0.00 0.00 88 1020.4
20260502001520 48 191 1.7 5.2 0.00 0.00 0.00 87 1020.6
20260502000019 48 187 2.6 5.2 0.00 0.00 0.00 86 1020.7
20260501234526 48 200 1.7 3.5 0.00 0.00 0.00 86 1020.9
20260501233019 48 192 1.7 3.5 0.00 0.00 0.00 84 1020.8
20260501231516 48 197 1.7 3.5 0.00 0.00 0.00 82 1021.0
20260501230011 48 206 1.7 4.3 0.00 0.00 0.00 81 1021.3
20260501224510 49 197 1.7 5.2 0.00 0.00 0.00 80 1021.4
20260501223008 50 243 2.6 4.3 0.00 0.00 0.00 78 1021.5
20260501221506 50 217 0.9 3.5 0.00 0.00 0.00 78 1021.4
20260501220005 49 205 0.9 2.6 0.00 0.00 0.00 75 1021.6
20260501214502 50 171 0.9 5.2 0.00 0.00 0.00 72 1021.6
20260501213002 51 186 2.6 4.3 0.00 0.00 0.00 70 1021.7
20260501211601 51 214 1.7 3.5 0.00 0.00 0.00 70 1021.9
20260501210100 51 195 1.7 3.5 0.00 0.00 0.00 71 1021.9
20260501204558 51 189 0.9 3.5 0.00 0.00 0.00 71 1022.1
20260501203059 51 169 0.9 2.6 0.00 0.00 0.00 72 1022.4
20260501201557 52 152 1.7 4.3 0.00 0.00 0.00 70 1022.4
20260501200053 52 179 1.7 5.2 0.00 0.00 0.00 71 1022.6
20260501194556 52 124 0.9 3.5 0.00 0.00 0.00 69 1022.7
20260501193051 53 163 1.7 4.3 0.00 0.00 0.00 67 1022.8
20260501191550 53 177 0.9 5.2 0.00 0.00 0.00 65 1022.9
20260501190047 54 167 0.0 6.1 0.00 0.00 0.00 63 1023.2
20260501184549 55 162 4.3 7.0 0.00 0.00 0.00 60 1023.2
20260501183056 56 171 4.3 7.8 0.00 0.00 0.00 57 1023.3
20260501181552 57 194 5.2 8.7 0.00 0.00 0.00 55 1023.4
20260501180044 58 213 3.5 7.8 0.00 0.00 0.00 57 1023.4
20260501174604 59 208 2.6 6.1 0.00 0.00 0.00 53 1023.4
20260501173055 60 156 2.6 5.2 0.00 0.00 0.00 52 1023.5
20260501171542 61 210 2.6 4.3 0.00 0.00 0.00 51 1023.6
20260501170047 61 180 2.6 5.2 0.00 0.00 0.00 47 1023.8
20260501164548 62 170 1.7 5.2 0.00 0.00 0.00 48 1024.0